Simultaneous Nadir Overpasses (SNOs) Predictions

Prediction of SNOs between AQUA and METOP-B Satellite Orbit:

Table of predicted SNOs for the next 14.0 days since TLE Epoch: 8/2/2025
Index Date (AQUA) Time (AQUA) Lat,Lon (AQUA) SZA (AQUA ) Date (METOP-B) Time (METOP-B) Lat,Lon (METOP-B) SZA (METOP-B ) Distance(km) Time Diff (sec)
1 08/03/2025 06:00:31 77.74, 89.57 60.26 08/03/2025 06:00:06 77.77, 89.59 60.29 2.82 25
2 08/03/2025 06:49:49 -77.78,-102.90 119.70 08/03/2025 06:50:47 -77.78,-103.04 119.70 3.36 58
3 08/05/2025 17:59:14 -77.76, 89.89 119.06 08/05/2025 17:58:26 -77.75, 89.87 119.07 1.80 48
4 08/05/2025 18:48:33 77.78,-102.54 60.98 08/05/2025 18:49:05 77.81,-102.51 61.00 2.64 32
5 08/08/2025 05:57:57 77.76, 90.31 61.64 08/08/2025 05:56:44 77.77, 90.36 61.66 2.08 73
6 08/08/2025 06:47:15 -77.79,-102.16 118.32 08/08/2025 06:47:25 -77.78,-102.25 118.33 2.21 10
7 08/10/2025 18:45:58 77.82,-101.90 62.44 08/10/2025 18:45:43 77.80,-101.78 62.42 3.21 15
8 08/10/2025 19:35:16 -77.85, 65.64 117.53 08/10/2025 19:36:24 -77.81, 65.61 117.56 3.66 68
9 08/13/2025 06:44:37 -77.79,-101.38 116.84 08/13/2025 06:44:01 -77.81,-101.34 116.82 2.61 36
10 08/13/2025 07:33:56 77.82, 66.16 63.20 08/13/2025 07:34:41 77.82, 66.05 63.21 2.67 45
11 08/15/2025 18:43:18 77.80,-101.01 63.94 08/15/2025 18:42:19 77.81,-100.94 63.96 2.55 59
12 08/15/2025 19:32:36 -77.83, 66.54 116.02 08/15/2025 19:33:00 -77.83, 66.49 116.01 1.54 24



Historial Predications of SNOs between AQUA and METOP-B
